Logan, UT

1:37 AM MST on November 14, 2019 (GMT -0700)
Logan-Cache

Weather History for KLGU - August, 2019

Change the Weather History Date:

Tuesday, August 27, 2019

  Actual Average Record
Temperature  
Mean Temperature 63 °F -  
Max Temperature 84 °F 84 °F 97 °F (1981)
Min Temperature 42 °F 50 °F 36 °F (2008)
Degree Days  
Heating Degree Days 2    
Growing Degree Days 13 (Base 50)    
Moisture  
Dew Point 34 °F    
Average Humidity 42    
Maximum Humidity 80    
Minimum Humidity 10    
Precipitation  
Precipitation 0.00 in - - ()
Sea Level Pressure  
Sea Level Pressure 30.05 in    
Wind  
Wind Speed 2 mph ()    
Max Wind Speed 9 mph    
Max Gust Speed -    
Visibility 10.0 miles    
Events      
Averages and records for this station are not official NWS values.
T = Trace of Precipitation, MM = Missing Value Source: Averaged Metar Reports

Daily Weather History Graph

Daily Weather History Graph

Search for Another Location

Airport or City:

Astronomy

Aug. 27, 2019 Rise Set
Actual Time 6:47 AM MDT 8:09 PM MDT
Civil Twilight 6:18 AM MDT 8:38 PM MDT
Nautical Twilight 5:44 AM MDT 9:12 PM MDT
Astronomical Twilight 5:07 AM MDT 9:49 PM MDT
Moon 3:13 AM MDT (8/27) 6:36 PM MDT (8/27)
Length of Visible Light 14h 19m
Length of Day
13h 21m
Waning Crescent, 10% of the Moon is Illuminated
Aug 27
Waning Crescent
Aug 30
New
Sep 5
First Quarter
Sep 13
Full
Sep 21
Last Quarter

Hourly Weather History & Observations

Time (MDT) Temp. Windchill Dew Point Humidity Pressure Visibility Wind Dir Wind Speed Gust Speed Precip Events Conditions
12:51 AM 55.0 °F - 41.0 °F 59% 30.05 in 10.0 mi Calm Calm - N/A   Clear
1:51 AM 55.0 °F - 39.0 °F 55% 30.05 in 10.0 mi Calm Calm - N/A   Clear
2:51 AM 50.0 °F - 39.0 °F 66% 30.06 in 10.0 mi Calm Calm - N/A   Clear
3:51 AM 48.9 °F - 37.9 °F 66% 30.06 in 10.0 mi ENE 4.6 mph - N/A   Clear
4:51 AM 46.0 °F 44.8 °F 37.9 °F 73% 30.06 in 10.0 mi West 3.5 mph - N/A   Clear
5:51 AM 42.1 °F - 36.0 °F 79% 30.09 in 10.0 mi Calm Calm - N/A   Clear
6:51 AM 44.1 °F - 36.0 °F 73% 30.10 in 10.0 mi Calm Calm - N/A   Clear
7:51 AM 45.0 °F - 39.0 °F 80% 30.12 in 10.0 mi Calm Calm - N/A   Clear
8:51 AM 54.0 °F - 36.0 °F 51% 30.14 in 10.0 mi Calm Calm - N/A   Clear
9:51 AM 59.0 °F - 34.0 °F 39% 30.13 in 10.0 mi North 4.6 mph - N/A   Clear
10:51 AM 64.9 °F - 35.1 °F 33% 30.11 in 10.0 mi North 5.8 mph - N/A   Clear
11:51 AM 70.0 °F - 33.1 °F 26% 30.09 in 10.0 mi Calm Calm - N/A   Clear
12:51 PM 73.9 °F - 34.0 °F 23% 30.08 in 10.0 mi Variable 4.6 mph - N/A   Clear
1:51 PM 77.0 °F - 30.9 °F 19% 30.05 in 10.0 mi Variable 3.5 mph - N/A   Clear
2:51 PM 81.0 °F - 27.0 °F 14% 30.03 in 10.0 mi ENE 5.8 mph - N/A   Clear
3:51 PM 82.9 °F - 28.9 °F 14% 30.01 in 10.0 mi NE 4.6 mph - N/A   Clear
4:51 PM 84.0 °F - 21.9 °F 10% 30.00 in 10.0 mi NNW 8.1 mph - N/A   Clear
5:51 PM 84.9 °F - 21.0 °F 10% 29.99 in 10.0 mi Variable 6.9 mph - N/A   Clear
6:51 PM 84.0 °F - 21.0 °F 10% 29.99 in 10.0 mi Calm Calm - N/A   Clear
7:51 PM 75.9 °F - 42.1 °F 30% 29.99 in 10.0 mi SW 9.2 mph - N/A   Clear
8:51 PM 68.0 °F - 42.1 °F 39% 30.01 in 10.0 mi ESE 3.5 mph - N/A   Clear
9:51 PM 69.1 °F - 30.0 °F 23% 30.01 in 10.0 mi South 3.5 mph - N/A   Clear
10:51 PM 55.9 °F - 37.0 °F 49% 30.02 in 10.0 mi Calm Calm - N/A   Clear
11:51 PM 55.0 °F - 39.9 °F 57% 30.01 in 10.0 mi North 4.6 mph - N/A   Clear